Hourly Data Report for March 29, 2015

All times are specified in Local Standard Time (LST). Add 1 hour to adjust for Daylight Saving Time where and when it is observed.

MIRAMICHI RCS
NEW BRUNSWICK

47°00'34.000" N
65°27'54.000" W
33.00 m
8100989
71744
ACQ

Download Data

Hourly Data (March 2015)
Hourly Data Report for March 29, 2015
TIME Temp Definition
°C
Dew Point Definition
°C
Rel Hum Definition
%
Wind Dir Definition
10's deg

Wind Spd Definition
km/h
Visibility Definition
km
Stn Press Definition
kPa
Hmdx Definition


Wind Chill Definition


Weather Definition


00:00 -4.7 -7.8 79 29 5   100.73   -7 LegendNANA
01:00 -4.9 -7.9 80 27 7   100.73   -8 LegendNANA
02:00 -4.8 -14.4 47 30 8   100.74   -8 LegendNANA
03:00 -5.6 -16.4 42 31 9   100.74   -10 LegendNANA
04:00 -5.9 -15.7 46 30 8   100.77   -10 LegendNANA
05:00 -6.3 -15.5 48 28 8   100.83   -10 LegendNANA
06:00 -6.8 -15.3 51 27 7   100.91   -10 LegendNANA
07:00 -7.1 -15.3 52 26 8   101.00   -11 LegendNANA
08:00 -5.5 -15.6 45 27 10   101.08   -10 LegendNANA
09:00 -4.4 -16.4 39 31 12   101.14   -9 LegendNANA
10:00 -2.5 -15.9 35 28 12   101.16   -7 LegendNANA
11:00 -0.8 -15.7 31 27 10   101.15   -4 LegendNANA
12:00 1.4 -14.5 30 25 9   101.11     LegendNANA
13:00 2.4 -12.7 32 22 12   101.07     LegendNANA
14:00 3.7 -12.6 29 21 13   101.00     LegendNANA
15:00 4.7 -12.1 28 22 7   100.95     LegendNANA
16:00 5.1 -11.7 28 23 15   100.91     LegendNANA
17:00 5.4 -11.1 29 23 8   100.93     LegendNANA
18:00 4.2 -9.7 36 24 18   100.94     LegendNANA
19:00 2.6 -9.9 39 25 13   100.97     LegendNANA
20:00 0.5 -10.1 45 25 10   101.03     LegendNANA
21:00 -0.3 -10.5 46 25 12   101.05   -4 LegendNANA
22:00 -1.2 -10.8 48 24 12   101.05   -5 LegendNANA
23:00 -2.3 -11.0 51 21 11   101.02   -6 LegendNANA

Notes on Data Quality.

Legend

  • E = Estimated
  • M = Missing
  • NA = Not Available
Date modified: